Torna al catalogo

TJS-27B

AttivoLEO
NORAD 100176·PAYLOAD·🇨🇳 China

Lanciato Jul 30, 2026 da Taiyuan Satellite Launch Center

Loading…

Prossimi Passaggi (prossime 24 ore)

TLE

AggiornatoSource: Space-Track

Epoca: Sep 14, 2026, 14:51 UTC

1 A0176U 26173C   26257.61916321 -.00000019  00000-0  12832-3 0  9994
2 A0176  64.7896 165.5289 0004741 262.0722  97.9769 13.28335879  6191

Traccia TJS-27B in tempo reale con AllMySat

Download on the App Store